Location: Livorno
(43.5500°N, 10.3170°E)
Time: 20:18:10
(UTC+02:00)

ISS - Pass Details

Date: 21 May 2026
Orbit: 415 x 423 km, 51.6° (Epoch: 10 June)

Event Time Altitude Azimuth Distance (km) Brightness Sun altitude
Rises 23:17:46 0° 298° (WNW) 2,356 1.0 -20.7°
Reaches altitude 10° 23:19:55 10° 292° (WNW) 1,490 -0.3 -20.8°
Enters shadow 23:22:23 37° 256° (WSW) 669 -2.7 -21.1°
